Demo 6

Misión y Visión

La misión es proporcionar información fiable a la navegación aérea, contribuyendo a la seguridad, regularidad y eficiencia de la Navegación Aérea Internacional

La visión es contribuir sustancialmente al desarrollo de conocimientos y a la utilización de la meteorología aeronáutica a nivel nacional e internacional, mediante la innovación y la coparticipación con sectores sociales y productivos de la sociedad.

 
  Inicio
  Metar
  Taf
  Wintemp
  SIGMET
  Avisos
  Pronósticos
  Carpeta Meteorologica
  Imágenes Satelitales
  Climatología Aeronáutica
   
  ¿Quienes Somos?
  Contacto
  Eventos



DIRECCIONES PARA INFORMES NACIONALES E INTERNACIONALES
(Metar /Speci - TAF)



http://adds.aviationweather.gov/tafs/index.php

http://www.ogimet.com/metars.phtml



PRONÓSTICOS DE AERÓDROMO

Cuando sea necesario, el encabezamiento abreviado puede incluir un cuarto grupo consistente en tres letras para identificar los boletines demorados (RRA), corregidos(CCA) o enmendados (AAA). Los boletines adicionales demorados, corregidos o enmendados deben identificarse con las letras RRB, RRC, etc.; CCB, CCC,etc.;AAB, AAC,etc.



ESTACIONES DESCRIPCION
MPTO (M) 160200Z 01004KT 9999 FEW018 26/25 Q1009 NOSIG=  
MPBO (M)  
MPCH (M)  
MPSA (M)  
MPCE (M)  
MPPN (M)  
MPSM (M)  
MPJE (M)  
MPPA (M) 160200Z 34004KT 9999 FEW016 27/26 Q1010  
MPMG (M) 160200Z 32003KT 290V350 9999 FEW018 28/25 Q1011 NOSIG  
MPDA (M) 160200Z 02003KT 9999 TS SCT014 SCT090 27/26 Q1011 RMK TS SE-S  
MPVR (M)  
MPWN (M)  
MPOA (M)  
MPMF (M)  
MPEJ (M)  


CLIMATICAS

MPTO

15 JUNIO 2019

PCPN (mm)

T° MAX

T° MIN

VIENTO MAX (KT)

HORA

VIENTO PREDOM (KT)

0.0

30.6

25.3

27009KT

0500Z

VRB03KT

CLIMATICAS

MPMG

15-JUNIO-2019

PCPN (mm)

T° MAX

T° MIN

VIENTO MAX (KT)

HORA

VIENTO PREDOM (KT)

-.-

30.9

26.4

30006KT

1800Z

W

 

 
 

Found

The document has moved here.